TimeCST,TemperatureF,Dew PointF,Humidity,Sea Level PressureIn,VisibilityMPH,Wind Direction,Wind SpeedMPH,Gust SpeedMPH,PrecipitationIn,Events,Conditions,WindDirDegrees,DateUTC
12:54 AM,52.0,44.1,74,29.95,10.0,North,6.9,-,0.01,,Overcast,360,2012-12-04 06:54:00
1:54 AM,51.1,44.1,77,29.97,10.0,North,8.1,-,0.00,Rain,Light Rain,350,2012-12-04 07:54:00
2:54 AM,50.0,41.0,71,30.02,10.0,NNW,5.8,-,0.00,,Overcast,340,2012-12-04 08:54:00
3:54 AM,48.9,39.0,69,30.04,10.0,North,4.6,-,N/A,,Mostly Cloudy,350,2012-12-04 09:54:00
4:54 AM,48.0,37.9,68,30.06,10.0,North,8.1,-,N/A,,Clear,350,2012-12-04 10:54:00
5:54 AM,46.9,37.0,68,30.07,10.0,North,6.9,-,N/A,,Clear,10,2012-12-04 11:54:00
6:54 AM,46.9,37.0,68,30.09,10.0,North,5.8,-,N/A,,Clear,350,2012-12-04 12:54:00
7:54 AM,46.9,36.0,66,30.12,10.0,North,3.5,-,N/A,,Clear,350,2012-12-04 13:54:00
8:54 AM,48.9,37.0,64,30.14,10.0,NNW,3.5,-,N/A,,Clear,340,2012-12-04 14:54:00
9:54 AM,48.9,37.0,64,30.17,10.0,WNW,3.5,-,N/A,,Clear,300,2012-12-04 15:54:00
10:54 AM,52.0,36.0,54,30.17,10.0,Variable,4.6,-,N/A,,Clear,0,2012-12-04 16:54:00
11:54 AM,55.4,35.6,47,30.16,10.0,NW,6.9,-,N/A,,Clear,320,2012-12-04 17:54:00
12:54 PM,57.0,34.0,42,30.15,10.0,NW,8.1,-,N/A,,Clear,310,2012-12-04 18:54:00
1:54 PM,57.9,28.9,33,30.14,10.0,NW,8.1,-,N/A,,Clear,310,2012-12-04 19:54:00
2:54 PM,59.0,28.0,31,30.16,10.0,WNW,9.2,-,N/A,,Clear,300,2012-12-04 20:54:00
3:54 PM,57.9,28.9,33,30.18,10.0,WNW,4.6,-,N/A,,Clear,300,2012-12-04 21:54:00
4:54 PM,54.0,30.0,40,30.19,10.0,WSW,3.5,-,N/A,,Clear,240,2012-12-04 22:54:00
5:54 PM,51.1,30.0,44,30.21,10.0,Calm,Calm,-,N/A,,Clear,0,2012-12-04 23:54:00
6:54 PM,45.0,30.0,56,30.23,10.0,Calm,Calm,-,N/A,,Clear,0,2012-12-05 00:54:00
7:54 PM,48.0,28.0,46,30.24,10.0,NW,4.6,-,N/A,,Clear,320,2012-12-05 01:54:00
8:54 PM,46.9,28.0,48,30.26,10.0,NNW,4.6,-,N/A,,Clear,340,2012-12-05 02:54:00
9:54 PM,45.0,28.0,52,30.28,10.0,NNW,3.5,-,N/A,,Clear,330,2012-12-05 03:54:00
10:54 PM,44.1,28.9,55,30.29,10.0,Calm,Calm,-,N/A,,Clear,0,2012-12-05 04:54:00
11:54 PM,41.0,28.9,62,30.32,10.0,NNE,3.5,-,N/A,,Clear,30,2012-12-05 05:54:00